Flag for Germany Weather past 2 weeks in Wismar, Mecklenburg-Western Pomerania, Germany

Now
52 °F

Overcast.


Feels Like: 51 °F
Forecast: 45 / 63 °F
Wind: 5 mph from North

Location: Schwerin

Current Time: May 23, 2015 at 1:17:34 PM

Latest Report: May 23, 2015 at 1:00 PM


Visibility: 25 mi

Pressure: 30.15 "Hg

Humidity: 85%

Dew point: 48 °F

Location of WismarLocation

Historic Weather in Wismar — Graph

°F

Wismar temperature yesterday

Maximum temperature yesterday: 65 °F (at 5:00 PM)
Minimum temperature yesterday: 43 °F (at 4:00 AM)
Average temperature yesterday: 55 °F

Past Weeks' High & Low Weather Summary

 TemperatureHumidityPressure
High75 °F (May 12, 3:00 PM)97% (May 21, 6:00 AM)30.36 "Hg (May 21, 6:00 AM)
Low40 °F (May 16, 4:00 AM)40% (May 10, 6:00 PM)29.58 "Hg (May 19, 5:00 AM)
Average52 °F72%30.03 "Hg
* Reported May 8 12:00 Noon — May 23 12:00 Noon, Wismar, Weather by CustomWeather, © 2015

Note: Actual official high and low records may vary slightly from our data, if they occured in-between our weather recording intervals... More about our weather records

Advertising

Wismar weather history for previous 24 hours

 ConditionsComfort  
Time TempWeatherWind HumidityBarometerVisibility
12:00 PM
Sat, May 23
52 °FDrizzle. Low clouds.5 mph90%30.15 "Hg12 mi
10:00 AM54 °FDrizzle. Overcast.2 mph86%30.14 "Hg3 mi
9:00 AM53 °FFog.3 mph84%30.13 "Hg4 mi
8:00 AM54 °FOvercast.3 mph80%30.12 "Hg7 mi
7:00 AM53 °FOvercast.3 mph79%30.11 "Hg8 mi
6:00 AM53 °FOvercast.2 mph80%30.11 "Hg9 mi
5:00 AM53 °FOvercast.2 mph78%30.12 "Hg9 mi
4:00 AM54 °FOvercast.2 mph76%30.13 "Hg11 mi
3:00 AM55 °FOvercast.3 mph68%30.14 "Hg15 mi
2:00 AM55 °FOvercast.3 mph69%30.15 "Hg11 mi
1:00 AM56 °FPassing clouds.2 mph68%30.15 "Hg12 mi
12:00 AM58 °FOvercast.5 mph70%30.16 "Hg10 mi
11:00 PM
Fri, May 22
58 °FOvercast.3 mph69%30.16 "Hg11 mi
10:00 PM59 °FOvercast.3 mph65%30.16 "Hg10 mi
9:00 PM62 °FOvercast.3 mph61%30.16 "Hg17 mi
8:00 PM63 °FOvercast.2 mph57%30.17 "Hg16 mi
7:00 PM64 °FOvercast.2 mph55%30.18 "Hg18 mi
6:00 PM64 °FOvercast.5 mph51%30.19 "Hg19 mi
5:00 PM65 °FOvercast.5 mph49%30.20 "Hg19 mi
4:00 PM64 °FOvercast.5 mph50%30.21 "Hg19 mi
3:00 PM65 °FOvercast.5 mph50%30.23 "Hg13 mi
2:00 PM62 °FScattered clouds.5 mph49%30.24 "Hg16 mi
1:00 PM61 °FPassing clouds.3 mph52%30.27 "Hg13 mi
Weather by CustomWeather, © 2015

See weather overviewHow to use our weather pages